GW0010 Weather Reports


time (UTC)temp
F
wind
direction
speed
knots
gust
knots
rain 1hr
in
rain 24hr
in
rain mn
in
humidity
%
barometer
mb
20260506211456 79 248 10.4 20.0 0.00 0.00 0.00 16 1024.8
20260506210456 79 244 10.4 14.8 0.00 0.00 0.00 16 1025.1
20260506205455 79 256 5.2 15.6 0.00 0.00 0.00 16 1025.0
20260506204455 79 267 2.6 13.0 0.00 0.00 0.00 17 1025.1
20260506203455 79 253 15.6 20.9 0.00 0.00 0.00 17 1025.2
20260506202455 78 258 7.0 13.9 0.00 0.00 0.00 16 1025.2
20260506201455 78 270 12.2 17.4 0.00 0.00 0.00 16 1026.1
20260506200454 79 252 7.8 15.6 0.00 0.00 0.00 16 1025.6
20260506195454 78 260 4.3 12.2 0.00 0.00 0.00 17 1025.7
20260506194448 78 288 9.6 11.3 0.00 0.00 0.00 17 1026.0
20260506193447 77 225 9.6 13.9 0.00 0.00 0.00 17 1026.1
20260506192447 78 247 8.7 14.8 0.00 0.00 0.00 17 1026.2
20260506191446 77 288 12.2 14.8 0.00 0.00 0.00 16 1026.8
20260506190445 77 248 6.1 11.3 0.00 0.00 0.00 16 1026.6
20260506185445 77 246 14.8 17.4 0.00 0.00 0.00 17 1026.8
20260506184445 78 217 11.3 14.8 0.00 0.00 0.00 17 1026.9
20260506183443 77 223 6.1 17.4 0.00 0.00 0.00 16 1027.0
20260506182438 77 261 9.6 19.1 0.00 0.00 0.00 17 1027.1
20260506181433 76 259 6.1 13.0 0.00 0.00 0.00 16 1027.1
20260506180432 76 244 7.8 14.8 0.00 0.00 0.00 16 1027.3
20260506175431 75 262 11.3 15.6 0.00 0.00 0.00 17 1027.4
20260506174426 74 270 8.7 13.9 0.00 0.00 0.00 16 1027.3
20260506173425 74 259 9.6 13.9 0.00 0.00 0.00 16 1027.3
20260506172425 75 250 7.8 13.0 0.00 0.00 0.00 16 1027.4
20260506171425 74 254 7.0 12.2 0.00 0.00 0.00 16 1027.6
20260506170425 73 256 5.2 15.6 0.00 0.00 0.00 16 1027.6
20260506165422 73 259 7.0 9.6 0.00 0.00 0.00 16 1027.6
20260506164420 73 276 5.2 11.3 0.00 0.00 0.00 16 1027.6
20260506163419 72 231 6.1 8.7 0.00 0.00 0.00 15 1027.5
20260506162418 73 278 7.8 9.6 0.00 0.00 0.00 14 1027.6
20260506161413 71 261 4.3 7.8 0.00 0.00 0.00 16 1027.6
20260506160413 71 251 5.2 8.7 0.00 0.00 0.00 16 1027.6
20260506155408 71 303 4.3 5.2 0.00 0.00 0.00 16 1027.6
20260506153530 69 7 0.9 5.2 0.00 0.00 0.00 17 1027.8
20260506152530 69 294 3.5 5.2 0.00 0.00 0.00 18 1027.8
20260506151526 69 278 3.5 6.1 0.00 0.00 0.00 17 1027.5
20260506150525 69 234 6.1 7.0 0.00 0.00 0.00 18 1027.6
20260506145525 68 229 1.7 5.2 0.00 0.00 0.00 18 1027.5
20260506144524 68 250 3.5 6.1 0.00 0.00 0.00 18 1027.4
20260506143520 68 245 3.5 6.1 0.00 0.00 0.00 18 1027.5
20260506142515 68 270 2.6 5.2 0.00 0.00 0.00 19 1027.0
20260506141511 69 268 1.7 2.6 0.00 0.00 0.00 19 1026.9
20260506140506 68 243 0.0 0.9 0.00 0.00 0.00 21 1027.1
20260506135506 66 198 2.6 2.6 0.00 0.00 0.00 22 1027.0
20260506134503 65 221 0.0 1.7 0.00 0.00 0.00 24 1026.8
20260506133503 64 218 2.6 5.2 0.00 0.00 0.00 24 1026.8
20260506132502 63 215 3.5 6.1 0.00 0.00 0.00 24 1026.2
20260506131457 63 227 3.5 6.1 0.00 0.00 0.00 24 1026.5
20260506130456 62 224 2.6 5.2 0.00 0.00 0.00 25 1026.1
20260506125452 62 257 6.1 7.0 0.00 0.00 0.00 25 1026.5
20260506124447 61 260 4.3 6.1 0.00 0.00 0.00 26 1026.1
20260506123442 60 249 2.6 5.2 0.00 0.00 0.00 27 1025.9
20260506122442 60 243 6.1 7.0 0.00 0.00 0.00 27 1025.9
20260506121437 61 234 5.2 6.1 0.00 0.00 0.00 26 1025.7
20260506120432 61 243 5.2 7.0 0.00 0.00 0.00 26 1025.6
20260506115427 62 247 4.3 6.1 0.00 0.00 0.00 27 1025.5
20260506114422 61 259 4.3 7.0 0.00 0.00 0.00 27 1025.3
20260506113418 62 266 5.2 6.1 0.00 0.00 0.00 26 1025.5
20260506112418 61 248 2.6 7.8 0.00 0.00 0.00 27 1025.2
20260506111413 61 254 4.3 6.1 0.00 0.00 0.00 29 1025.1
20260506110413 61 245 5.2 7.8 0.00 0.00 0.00 29 1025.2
20260506105412 61 248 5.2 7.0 0.00 0.00 0.00 29 1025.5
20260506104407 61 247 6.1 7.8 0.00 0.00 0.00 28 1025.1
20260506103402 61 251 4.3 8.7 0.00 0.00 0.00 28 1025.2
20260506102357 62 250 6.1 8.7 0.00 0.00 0.00 28 1025.2
20260506101356 62 258 4.3 7.8 0.00 0.00 0.00 28 1025.1
20260506100352 62 222 6.1 11.3 0.00 0.00 0.00 27 1025.2
20260506095347 63 269 6.1 7.8 0.00 0.00 0.00 27 1025.2
20260506094343 62 252 6.1 9.6 0.00 0.00 0.00 27 1025.1
20260506093343 62 246 6.1 9.6 0.00 0.00 0.00 28 1025.2
20260506092339 62 252 6.1 8.7 0.00 0.00 0.00 28 1025.2
20260506091339 62 261 6.1 8.7 0.00 0.00 0.00 28 1025.1
20260506090339 63 228 5.2 7.0 0.00 0.00 0.00 28 1025.1
20260506085338 64 246 6.1 8.7 0.00 0.00 0.00 27 1025.3
20260506084337 64 255 4.3 7.8 0.00 0.00 0.00 26 1025.5
20260506083337 65 244 4.3 7.8 0.00 0.00 0.00 25 1025.3
20260506082337 65 240 6.1 7.8 0.00 0.00 0.00 24 1025.7
20260506081337 65 250 7.0 11.3 0.00 0.00 0.00 24 1025.6
20260506080337 66 256 3.5 9.6 0.00 0.00 0.00 24 1025.5
20260506073327 65 265 6.1 9.6 0.00 0.00 0.00 26 1026.1
20260506072327 65 276 8.7 11.3 0.00 0.00 0.00 26 1026.1
20260506071323 64 287 7.8 7.8 0.00 0.00 0.00 26 1026.4
20260506070322 65 253 7.0 9.6 0.00 0.00 0.00 26 1026.4
20260506062306 66 272 5.2 11.3 0.00 0.00 0.00 25 1026.5
20260506061304 66 239 5.2 7.8 0.00 0.00 0.00 23 1026.8
20260506060300 67 230 2.6 5.2 0.00 0.00 0.00 23 1026.6
20260506051249 67 262 2.6 6.1 0.00 0.00 0.00 24 1027.0
20260506050244 68 250 4.3 7.0 0.00 0.00 0.00 23 1027.0
20260506044243 68 249 4.3 6.1 0.00 0.00 0.00 22 1026.6
20260506043238 68 262 6.1 8.7 0.00 0.00 0.00 22 1026.8
20260506042235 69 268 4.3 7.8 0.00 0.00 0.00 21 1026.1
20260506041230 69 276 6.1 8.7 0.00 0.00 0.00 21 1026.2
20260506040230 69 260 6.1 9.6 0.00 0.00 0.00 21 1026.2
20260506035229 70 239 7.0 7.8 0.00 0.00 0.00 20 1026.0
20260506034229 71 244 4.3 12.2 0.00 0.00 0.00 19 1025.7
20260506033229 71 231 8.7 12.2 0.00 0.00 0.00 18 1025.5
20260506032229 71 282 9.6 9.6 0.00 0.00 0.00 17 1025.1
20260506031229 72 249 5.2 13.0 0.00 0.00 0.00 17 1025.3
20260506030224 72 259 8.7 9.6 0.00 0.00 0.00 16 1025.2
20260506025223 73 253 7.8 11.3 0.00 0.00 0.00 16 1025.3
20260506024223 73 246 9.6 12.2 0.00 0.00 0.00 15 1024.8
20260506023222 73 260 8.7 12.2 0.00 0.00 0.00 15 1025.0
20260506022217 74 263 5.2 9.6 0.00 0.00 0.00 14 1024.8
20260506021217 74 247 5.2 8.7 0.00 0.00 0.00 14 1024.5
20260506020212 74 240 7.8 11.3 0.00 0.00 0.00 14 1024.5
20260506015212 75 246 6.1 8.7 0.00 0.00 0.00 14 1024.1
20260506014211 75 249 10.4 13.0 0.00 0.00 0.00 13 1024.3
20260506013206 76 275 5.2 12.2 0.00 0.00 0.00 13 1024.2
20260506012204 76 243 8.7 13.9 0.00 0.00 0.00 13 1023.9
20260506011203 77 236 7.0 12.2 0.00 0.00 0.00 12 1023.9
20260506010159 77 270 12.2 15.6 0.00 0.00 0.00 12 1023.7
20260506005159 78 253 7.8 9.6 0.00 0.00 0.00 12 1023.9
20260506004159 78 263 8.7 12.2 0.00 0.00 0.00 12 1023.8
20260506003156 78 238 9.6 14.8 0.00 0.00 0.00 12 1023.7
20260506002154 79 243 13.0 17.4 0.00 0.00 0.00 12 1023.8
20260506001154 79 246 15.6 18.2 0.00 0.00 0.00 12 1023.8
20260506000148 79 250 16.5 20.0 0.00 0.00 0.00 12 1023.7
20260505235149 79 261 13.0 19.1 0.00 0.00 0.00 12 1023.6
20260505234148 80 241 12.2 18.2 0.00 0.00 0.00 13 1023.3
20260505233148 80 246 6.1 18.2 0.00 0.00 0.00 12 1023.6
20260505232143 80 287 11.3 13.9 0.00 0.00 0.00 13 1023.4
20260505231139 81 251 7.0 20.0 0.00 0.00 0.00 13 1023.7
20260505230138 81 263 9.6 12.2 0.00 0.00 0.00 12 1023.6
20260505225137 80 260 12.2 14.8 0.00 0.00 0.00 13 1023.3
20260505224137 80 224 13.0 19.1 0.00 0.00 0.00 12 1023.6
20260505223136 81 270 16.5 21.7 0.00 0.00 0.00 12 1023.6
20260505222134 81 261 10.4 15.6 0.00 0.00 0.00 12 1023.7
20260505221134 80 259 13.9 20.0 0.00 0.00 0.00 12 1023.4
20260505220134 80 249 13.0 15.6 0.00 0.00 0.00 11 1023.8
20260505215130 80 223 13.9 20.0 0.00 0.00 0.00 11 1024.1
20260505214130 80 275 14.8 22.6 0.00 0.00 0.00 11 1024.2
20260505213130 81 214 10.4 19.1 0.00 0.00 0.00 11 1023.9
20260505212130 80 255 9.6 18.2 0.00 0.00 0.00 11 1024.3